Home > Weather > Burgdorf > Past weeks

Flag for Switzerland Weather for the Past 2 Weeks in Burgdorf, Bern, Switzerland

Now
48 °F

Partly sunny.


Feels Like: 48 °F
Forecast: 34 / 38 °F
Wind: 2 mph from North

Location: Bern / Belp

Current Time: Feb 9, 2016 at 1:57:35 PM

Latest Report: Feb 9, 2016 at 1:20 PM


Visibility: N/A

Pressure: 29.47 "Hg (27.61 "Hg at 539m altitude)

Humidity: 87%

Dew point: 45 °F

Location of BurgdorfLocation

Historic Weather in Burgdorf — Graph

°F

Burgdorf Temperature Yesterday

Maximum temperature yesterday: 55 °F (at 2:20 PM)
Minimum temperature yesterday: 28 °F (at 2:50 AM)
Average temperature yesterday: 42 °F

High & Low Weather Summary for the Past Weeks

 TemperatureHumidityPressure
High59 °F (Feb 1, 11:50 AM)100% (Jan 25, 8:20 PM)30.48 "Hg (Jan 25, 8:20 PM)
Low27 °F (Jan 27, 6:20 AM)50% (Feb 9, 3:50 AM)29.53 "Hg (Feb 9, 11:50 AM)
Average41 °F87%30.19 "Hg
* Reported Jan 25 12:20 PM — Feb 9 12:20 PM, Burgdorf, Weather by CustomWeather, © 2016

Note: Actual official high and low records may vary slightly from our data, if they occured in-between our weather recording intervals... More about our weather records

Advertising

Burgdorf Weather History for the Previous 24 Hours

 ConditionsComfort  
Time TempWeatherWind HumidityBarometerVisibility
12:20 PM
Tue, Feb 9
50 °FLight rain. Broken clouds.10 mph76%29.53 "HgN/A
11:50 AM48 °FBroken clouds.6 mph87%29.53 "HgN/A
11:20 AM50 °FBroken clouds.3 mph76%29.56 "HgN/A
10:50 AM48 °FBroken clouds.10 mph87%29.56 "HgN/A
10:20 AM48 °FBroken clouds.9 mph82%29.59 "HgN/A
9:50 AM46 °FSprinkles. Broken clouds.2 mph87%29.62 "HgN/A
9:20 AM45 °FSprinkles. Broken clouds.2 mph87%29.65 "HgN/A
8:50 AM45 °FScattered clouds.3 mph87%29.65 "HgN/A
8:20 AM45 °FBroken clouds.6 mph87%29.65 "HgN/A
7:50 AM41 °FScattered clouds.10 mph93%29.68 "HgN/A
7:20 AM43 °FPartly cloudy.1 mph87%29.71 "HgN/A
6:50 AM43 °FPassing clouds.3 mph87%29.71 "HgN/A
6:20 AM39 °FPartly cloudy.3 mph93%29.74 "HgN/A
5:50 AM41 °FPartly cloudy.2 mph87%29.74 "HgN/A
5:20 AM41 °FPassing clouds.1 mph93%29.77 "HgN/A
4:50 AM45 °FPassing clouds.8 mph81%29.77 "HgN/A
4:20 AM45 °FPassing clouds.8 mph76%29.80 "HgN/A
3:50 AM52 °FPassing clouds.3 mph50%29.80 "HgN/A
3:20 AM50 °FPassing clouds.6 mph54%29.83 "HgN/A
2:50 AM50 °FPassing clouds.10 mph58%29.86 "HgN/A
2:20 AM48 °FPassing clouds.14 mph62%29.89 "HgN/A
1:50 AM46 °FPassing clouds.5 mph82%29.89 "HgN/A
1:20 AM45 °FSprinkles. Passing clouds.6 mph93%29.89 "HgN/A
12:50 AM45 °FSprinkles. Passing clouds.5 mph93%29.89 "Hg4 mi
12:20 AM45 °FSprinkles. Partly cloudy.9 mph87%29.89 "HgN/A
11:20 PM
Mon, Feb 8
48 °FPartly cloudy.10 mph71%29.92 "HgN/A
10:50 PM48 °FSprinkles. Partly cloudy.9 mph71%29.89 "HgN/A
10:20 PM48 °FPartly cloudy.17 mph76%29.89 "HgN/A
9:50 PM48 °FSprinkles. Passing clouds.10 mph82%29.89 "HgN/A
9:20 PM50 °FPassing clouds.15 mph71%29.86 "HgN/A
8:50 PM50 °FPartly cloudy.8 mph71%29.89 "HgN/A
8:20 PM50 °FPassing clouds.12 mph71%29.86 "HgN/A
7:50 PM50 °FPassing clouds.10 mph71%29.86 "HgN/A
7:20 PM50 °FLight rain. Partly cloudy.8 mph76%29.83 "HgN/A
6:50 PM48 °FSprinkles. Partly cloudy.6 mph82%29.83 "HgN/A
6:20 PM52 °FSprinkles. Partly cloudy.8 mph67%29.80 "HgN/A
5:50 PM52 °FSprinkles. Partly cloudy.13 mph62%29.80 "Hg6 mi
5:20 PM52 °FBroken clouds.16 mph62%29.77 "HgN/A
4:50 PM54 °FLight rain. Broken clouds.15 mph58%29.77 "HgN/A
4:20 PM55 °FScattered clouds.15 mph51%29.74 "HgN/A
3:50 PM54 °FScattered clouds.10 mph58%29.74 "HgN/A
3:20 PM55 °FPartly sunny.13 mph51%29.71 "HgN/A
2:50 PM55 °FPartly sunny.10 mph51%29.74 "HgN/A
2:20 PM55 °FPartly sunny.15 mph51%29.74 "HgN/A
1:50 PM54 °FScattered clouds.14 mph51%29.77 "HgN/A
1:20 PM52 °FScattered clouds.6 mph58%29.77 "HgN/A
Weather by CustomWeather, © 2016

See weather overviewHow to use our weather pages